Andrews AFB, MD

8:09 AM EDT on July 26, 2017 (GMT -0400)
Andrews Air Force Base-Naf

Weather History for KADW - January, 2014

Change the Weather History Date:

Thursday, January 30, 2014

  Actual Average Record
Temperature  
Mean Temperature 18 °F -  
Max Temperature 30 °F 41 °F 77 °F (2002)
Min Temperature 5 °F 24 °F 5 °F (2014)
Degree Days  
Heating Degree Days 48    
Moisture  
Dew Point 4 °F    
Average Humidity 54    
Maximum Humidity 78    
Minimum Humidity 31    
Precipitation  
Precipitation 0.00 in - - ()
Sea Level Pressure  
Sea Level Pressure 30.39 in    
Wind  
Wind Speed 5 mph (SE)    
Max Wind Speed 8 mph    
Max Gust Speed -    
Visibility 10 miles    
Events      
Averages and records for this station are not official NWS values.
T = Trace of Precipitation, MM = Missing Value Source: NWS Daily Summary

Daily Weather History Graph

Daily Weather History Graph

Search for Another Location

Airport or City:

Trip Planner

Search our weather history database for the weather conditions in past years. The results will help you decide how hot, cold, wet, or windy it might be!

Date:

Astronomy

Jan. 30, 2014 Rise Set
Actual Time 7:15 AM EST 5:26 PM EST
Civil Twilight 6:47 AM EST 5:54 PM EST
Nautical Twilight 6:15 AM EST 6:26 PM EST
Astronomical Twilight 5:43 AM EST 6:58 PM EST
Moon 6:39 AM EST (1/30) 5:35 PM EST (1/30)
Length of Visible Light 11h 07m
Length of Day
10h 11m
Waning Crescent, 0% of the Moon is Illuminated
Jan 30
Waning Crescent
Jan 30
New
Feb 6
First Quarter
Feb 14
Full
Feb 22
Last Quarter

Hourly Weather History & Observations

Time (EST) Temp. Windchill Dew Point Humidity Pressure Visibility Wind Dir Wind Speed Gust Speed Precip Events Conditions
12:58 AM 10.0 °F 0.4 °F -1.5 °F 60% 30.42 in 10.0 mi NW 5.8 mph - N/A   Clear
1:58 AM 10.9 °F 0.2 °F -3.5 °F 52% 30.43 in 10.0 mi North 6.9 mph - N/A   Clear
3:58 AM 7.7 °F - -1.1 °F 67% 30.45 in 10.0 mi Calm Calm - N/A   Clear
4:58 AM 6.6 °F - 0.5 °F 76% 30.46 in 10.0 mi Calm Calm - N/A   Clear
5:58 AM 5.9 °F - 0.5 °F 78% 30.47 in 10.0 mi NW 1.2 mph - N/A   Clear
6:58 AM 6.4 °F - 0.3 °F 76% 30.48 in 10.0 mi North 2.3 mph - N/A   Clear
7:58 AM 9.5 °F - 0.9 °F 68% 30.49 in 10.0 mi Calm Calm - N/A   Clear
8:58 AM 18.1 °F 10.0 °F 4.6 °F 56% 30.49 in 10.0 mi NNE 5.8 mph - N/A   Clear
9:58 AM 22.5 °F 15.1 °F -0.8 °F 36% 30.51 in 10.0 mi NE 5.8 mph - N/A   Clear
10:58 AM 24.6 °F 15.8 °F 1.4 °F 37% 30.49 in 10.0 mi SSE 8.1 mph - N/A   Clear
11:58 AM 26.2 °F 18.6 °F 3.6 °F 38% 30.47 in 10.0 mi SE 6.9 mph - N/A   Clear
12:58 PM 27.3 °F 23.4 °F 6.1 °F 41% 30.42 in 10.0 mi Variable 3.5 mph - N/A   Clear
1:58 PM 29.7 °F 23.7 °F 6.8 °F 38% 30.39 in 10.0 mi South 5.8 mph - N/A   Clear
2:58 PM 30.2 °F 24.3 °F 4.5 °F 34% 30.37 in 10.0 mi East 5.8 mph - N/A   Clear
3:58 PM 29.8 °F 23.9 °F 2.7 °F 31% 30.36 in 10.0 mi SE 5.8 mph - N/A   Clear
4:58 PM 27.9 °F 19.8 °F 3.9 °F 36% 30.32 in 10.0 mi SE 8.1 mph - N/A   Clear
5:58 PM 23.7 °F 14.7 °F 4.3 °F 43% 30.32 in 10.0 mi SE 8.1 mph - N/A   Clear
6:58 PM 21.9 °F 13.4 °F 5.4 °F 49% 30.31 in 10.0 mi ESE 6.9 mph - N/A   Clear
7:58 PM 19.9 °F 12.1 °F 6.1 °F 55% 30.30 in 10.0 mi SSE 5.8 mph - N/A   Clear
8:58 PM 18.3 °F 13.1 °F 6.8 °F 61% 30.29 in 10.0 mi South 3.5 mph - N/A   Clear
9:58 PM 19.2 °F 11.3 °F 8.8 °F 64% 30.28 in 10.0 mi South 5.8 mph - N/A   Clear
10:58 PM 18.7 °F 8.6 °F 10.6 °F 71% 30.25 in 10.0 mi SSE 8.1 mph - N/A   Clear
11:58 PM 19.8 °F 11.9 °F 11.8 °F 71% 30.22 in 10.0 mi SSE 5.8 mph - N/A   Clear